Meriden, CT

4:50 PM EDT on March 28, 2017 (GMT -0400)
Meriden Markham Municipal

Weather History for KMMK - October, 2011

Change the Weather History Date:

Friday, October 28, 2011

  Actual Average (KOXC) Record (KOXC)
Temperature  
Mean Temperature 40 °F -  
Max Temperature 48 °F 53 °F 71 °F (2010)
Min Temperature 32 °F 37 °F 28 °F (2005)
Degree Days  
Heating Degree Days 25    
Moisture  
Dew Point 28 °F    
Average Humidity 65    
Maximum Humidity 89    
Minimum Humidity 37    
Precipitation  
Precipitation 0.00 in - - ()
Sea Level Pressure  
Sea Level Pressure 30.17 in    
Wind  
Wind Speed 6 mph (NW)    
Max Wind Speed 14 mph    
Max Gust Speed 20 mph    
Visibility 10 miles    
Events      
Averages and records for this station are not official NWS values.
T = Trace of Precipitation, MM = Missing Value Source: NWS Daily Summary

Daily Weather History Graph

Daily Weather History Graph

Search for Another Location

Airport or City:

Trip Planner

Search our weather history database for the weather conditions in past years. The results will help you decide how hot, cold, wet, or windy it might be!

Date:

Astronomy

Oct. 28, 2011 Rise Set
Actual Time 7:17 AM EDT 5:51 PM EDT
Civil Twilight 6:49 AM EDT 6:20 PM EDT
Nautical Twilight 6:16 AM EDT 6:52 PM EDT
Astronomical Twilight 5:44 AM EDT 7:24 PM EDT
Moon 9:32 AM EDT 7:09 PM EDT
Length of Visible Light 11h 30m
Length of Day
10h 33m
Waxing Crescent, 5% of the Moon is Illuminated
Oct 28
Waxing Crescent
Nov 2
First Quarter
Nov 10
Full
Nov 18
Last Quarter
Nov 25
New

Hourly Weather History & Observations

Time (EDT) Temp. Windchill Dew Point Humidity Pressure Visibility Wind Dir Wind Speed Gust Speed Precip Events Conditions
12:53 AM 36.0 °F 29.6 °F 33.1 °F 89% 29.96 in 10.0 mi NNW 8.1 mph - N/A   Mostly Cloudy
1:53 AM 35.1 °F 29.3 °F 30.9 °F 85% 29.99 in 10.0 mi NW 6.9 mph - N/A   Clear
2:53 AM 34.0 °F 29.8 °F 30.0 °F 85% 30.01 in 10.0 mi NW 4.6 mph - N/A   Clear
4:53 AM 33.1 °F 30.0 °F 28.9 °F 85% 30.08 in 10.0 mi WNW 3.5 mph - N/A   Clear
6:53 AM 32.0 °F 26.4 °F 27.0 °F 82% 30.13 in 10.0 mi NNW 5.8 mph - N/A   Clear
7:53 AM 33.1 °F 30.0 °F 28.0 °F 82% 30.15 in 10.0 mi WNW 3.5 mph - N/A   Clear
8:53 AM 36.0 °F 33.3 °F 28.9 °F 76% 30.19 in 10.0 mi NW 3.5 mph - N/A   Clear
9:53 AM 39.9 °F 35.1 °F 28.0 °F 63% 30.20 in 10.0 mi NW 6.9 mph - N/A   Clear
10:53 AM 42.1 °F 36.6 °F 25.0 °F 51% 30.20 in 10.0 mi NNW 9.2 mph 19.6 mph N/A   Clear
11:53 AM 45.0 °F 38.5 °F 24.1 °F 44% 30.21 in 10.0 mi NW 13.8 mph 19.6 mph N/A   Clear
12:53 PM 46.9 °F - 24.1 °F 41% 30.21 in 10.0 mi NW 10.4 mph 19.6 mph N/A   Clear
1:53 PM 48.0 °F - 23.0 °F 37% 30.20 in 10.0 mi NNW 8.1 mph 17.3 mph N/A   Clear
2:53 PM 48.0 °F - 24.1 °F 39% 30.19 in 10.0 mi North 13.8 mph 18.4 mph N/A   Clear
3:53 PM 48.0 °F - 24.1 °F 39% 30.20 in 10.0 mi NNW 10.4 mph 16.1 mph N/A   Clear
4:53 PM 46.0 °F 42.5 °F 25.0 °F 44% 30.21 in 10.0 mi NNW 6.9 mph - N/A   Clear
5:53 PM 44.1 °F 41.5 °F 27.0 °F 51% 30.22 in 10.0 mi North 4.6 mph - N/A   Clear
6:53 PM 42.1 °F - 28.0 °F 58% 30.25 in 10.0 mi Calm Calm - N/A   Clear
7:53 PM 41.0 °F 38.0 °F 28.9 °F 62% 30.26 in 10.0 mi NW 4.6 mph - N/A   Clear
9:53 PM 39.0 °F - 32.0 °F 76% 30.27 in 10.0 mi Calm Calm - N/A   Clear
10:53 PM 36.0 °F - 32.0 °F 86% 30.27 in 10.0 mi Calm Calm - N/A   Clear
11:53 PM 37.0 °F - 33.1 °F 86% 30.27 in 10.0 mi Calm Calm - N/A   Clear